Flag for U.S.A. Weather past 2 weeks in Fayetteville, North Carolina, U.S.A.

Now
50 °F

Clear.


Feels Like: 47 °F
Forecast: 45 / 68 °F
Wind: 8 mph from Northwest

Location: Fayetteville Regional Airport

Current Time: Oct 23, 2014 at 4:20:02 AM

Latest Report: Oct 23, 2014 at 3:53 AM


Visibility: 10 mi

Pressure: 29.99 "Hg

Humidity: 71%

Dew point: 41 °F

Location of FayettevilleLocation

Historic Weather in Fayetteville — Graph

°F

Fayetteville temperature yesterday

Maximum temperature yesterday: 69 °F (at 3:53 PM)
Minimum temperature yesterday: 51 °F (at 6:53 AM)
Average temperature yesterday: 59 °F

Past Weeks' High & Low Weather Summary

 TemperatureHumidityPressure
High89 °F (Oct 11, 1:53 PM)97% (Oct 12, 1:04 AM)30.24 "Hg (Oct 12, 1:04 AM)
Low41 °F (Oct 20, 6:53 AM)33% (Oct 21, 3:53 PM)29.72 "Hg (Oct 18, 2:53 PM)
Average67 °F73%29.98 "Hg
* Reported Oct 8 2:53 AM — Oct 23 2:53 AM, Fayetteville, Weather by CustomWeather, © 2014

Note: Actual official high and low records may vary slightly from our data, if they occured in-between our weather recording intervals... More about our weather records

Advertising

Fayetteville weather history for previous 24 hours

 ConditionsComfort  
Time TempWeatherWind HumidityBarometerVisibility
2:53 AM
Oct 23
50 °FClear.8 mph71%30.01 "Hg10 mi
1:53 AM52 °FClear.7 mph66%30.01 "Hg10 mi
12:53 AM52 °FClear.8 mph66%30.02 "Hg10 mi
11:53 PM
Oct 22
54 °FClear.9 mph62%30.02 "Hg10 mi
10:53 PM55 °FClear.9 mph59%30.02 "Hg10 mi
9:53 PM58 °FClear.9 mph54%30.01 "Hg10 mi
8:53 PM59 °FClear.10 mph51%29.99 "Hg10 mi
7:53 PM61 °FClear.12 mph50%29.98 "Hg10 mi
6:53 PM62 °FScattered clouds.10 mph48%29.96 "Hg10 mi
5:53 PM66 °FOvercast.12 mph43%29.95 "Hg10 mi
4:53 PM66 °FPartly sunny.15 mph42%29.94 "Hg10 mi
3:53 PM69 °FPartly sunny.16 mph39%29.95 "Hg10 mi
2:53 PM68 °FPassing clouds.13 mph39%29.95 "Hg10 mi
1:53 PM68 °FSunny.13 mph39%29.96 "Hg10 mi
12:53 PM67 °FSunny.9 mph41%29.97 "Hg10 mi
11:53 AM65 °FSunny.12 mph42%29.98 "Hg10 mi
10:53 AM62 °FSunny.18 mph44%29.98 "Hg10 mi
9:53 AM58 °FSunny.18 mph50%29.98 "Hg10 mi
8:53 AM55 °FSunny.16 mph57%29.97 "Hg10 mi
7:53 AM52 °FClear.12 mph64%29.96 "Hg10 mi
6:53 AM51 °FClear.9 mph69%29.94 "Hg10 mi
5:53 AM52 °FClear.10 mph64%29.92 "Hg10 mi
4:53 AM53 °FClear.15 mph61%29.90 "Hg10 mi
Weather by CustomWeather, © 2014

See weather overviewHow to use our weather pages